Regional Weather Roundup
Issued by NWS Wilmington, NC

Home | Current Version | Previous Version | Text Only | Print | Product List | Glossary On
Versions: 1 2 3 4 5 6 7 8 9 10 11 12 13 14 15 16 17 18 19 20 21 22 23 24 25 26 27 28 29 30 31 32 33 34 35 36 37 38 39 40 41 42 43 44 45 46 47 48 49 50
000
ASUS42 KILM 010710
RWRILM
RWRILM
REGIONAL HOURLY WEATHER ROUNDUP
NATIONAL WEATHER SERVICE WILMINGTON NC
300 AM EDT FRI AUG 01 2014

NOTE: "FAIR" INDICATES FEW OR NO CLOUDS BELOW 12,000 FEET WITH NO
SIGNIFICANT WEATHER AND/OR OBSTRUCTIONS TO VISIBILITY.

...............WFO WILMINGTON COUNTY WARNING AREA...............

......COASTAL NC AND SC COUNTIES......

CITY           SKY/WX    TMP DP  RH WIND       PRES   REMARKS
WILMINGTON     TSTM      77  74  90 E13       30.05F
SOUTHPORT      CLOUDY    79  74  84 SE9       30.05S
N MYRTLE BEACH MOCLDY    80  75  84 SE9G20    30.02F
MYRTLE BEACH   MOCLDY    77  72  83 E8        30.03R

......INLAND NC AND SC COUNTIES.......

CITY           SKY/WX    TMP DP  RH WIND       PRES   REMARKS
LUMBERTON      LGT RAIN  73  70  90 E8        30.06F
ELIZABETHTOWN  LGT RAIN  72  70  95 E3        30.08S
WHITEVILLE     CLOUDY    73  71  95 NE8       30.05F
FLORENCE       CLOUDY    73  71  93 E8        30.04F
DARLINGTON     MOCLDY    72  68  88 NE6       30.06F

....................REST OF NORTH CAROLINA......................

.........EASTERN NC.........

CITY           SKY/WX    TMP DP  RH WIND       PRES   REMARKS
CAPE HATTERAS  MOCLDY    79  69  71 E10       30.12F
JACKSONVILLE   CLOUDY    72  66  83 E7        30.09F
MOREHEAD CITY  CLOUDY    80  71  74 E7        30.09F
KENANSVILLE    LGT RAIN  72  68  88 CALM      30.10F
NEW BERN       CLOUDY    77  68  73 E5        30.11F
ELIZABETH CITY CLOUDY    74  67  78 E6        30.15F

.........CENTRAL NC.........

CITY           SKY/WX    TMP DP  RH WIND       PRES   REMARKS
RALEIGH DURHAM CLOUDY    70  67  90 NE5       30.13F FOG
ROCKY MOUNT    CLOUDY    71  67  87 NE5       30.12F
ROANOKE RAPIDS NOT AVBL
FAYETTEVILLE   CLOUDY    72  69  90 E5        30.07F
HOFFMAN        CLOUDY    70  67  92 NE6       30.10S

.........WESTERN NC.........

CITY           SKY/WX    TMP DP  RH WIND       PRES   REMARKS
CHARLOTTE      TSTM      67  65  93 VRB3      30.11S
GREENSBORO     LGT RAIN  67  66  97 NE7       30.13F
HICKORY        NOT AVBL
BOONE          NOT AVBL
ASHEVILLE      NOT AVBL

.....................REST OF SOUTH CAROLINA.....................

.........EASTERN SC.........

CITY           SKY/WX    TMP DP  RH WIND       PRES   REMARKS
CHARLESTON     PTCLDY    75  72  90 CALM      30.00F
BEAUFORT MCAS  CLOUDY    75  73  93 NE5       29.98F FOG
HILTON HEAD    NOT AVBL

.........CENTRAL SC.........

CITY           SKY/WX    TMP DP  RH WIND       PRES   REMARKS
COLUMBIA       CLOUDY    74  68  81 N3        30.04S
ORANGEBURG     CLOUDY    72  69  90 NE3       30.02F
SUMTER SHAW    CLOUDY    72  72 100 NE5       30.02F

.........WESTERN SC.........

CITY           SKY/WX    TMP DP  RH WIND       PRES   REMARKS
GREENVILLE     NOT AVBL
ROCK HILL      CLOUDY    67  66  97 VRB5      30.09F
ANDERSON       LGT RAIN  66  65  96 NE9       30.08F
CLEMSON        NOT AVBL
GREENWOOD      CLOUDY    67  64  90 N8        30.08F


...................COASTAL AND OFFSHORE REPORTS..................

................LOCAL PIERS AND NC RESERVE................


STATION/POSITION TIME  SKY/WX   TEMP    WIND        PRES    VSBY
                                AIR SEA DIR/SP/G
                 (UTC)          (F)     (DEG/KT/KT) (MB)    (MI)
JOHNY MRCER PIER 0700            79 83   70/ 19/ 22 1016.9F
NC RESRV MASNBRO 0600            79      70/  7     1017.0S
OCEAN CREST PIER 0700            82 83  120/ 21/ 25 1016.2F
SPRINGMAID  PIER 0700            79 83  110/ 14/ 17 1016.7F


................COASTAL AND OFFSHORE BUOYS................


STATION/POSITION TIME  SKY/WX   TEMP    WIND        PRES    VSBY
                                AIR SEA DIR/SP/G
                 (UTC)          (F)     (DEG/KT/KT) (MB)    (MI)
DIMNDSHOAL 41025 0700                   VRB 10/ 14  1019.6F
WVE H/P(F/S)=  4/ 5 WND WVE H/P(F/S)=  3/ 4 SWL H/P/D(F/S/D)=  3/110/ 5

CAPE LOOKOUT     0600            80      90/ 16/ 18 1019.2F
ONSLOW BAY 41036 0700            81 81   90/ 16/ 19 1018.3F
WVE H/P(F/S)=  5/ 5 WND WVE H/P(F/S)=  5/ 5 SWL H/P/D(F/S/D)=  2/140/ 9

5 WRITEBCH 41038 0600            77 81  110/ 19/ 23   N/A
MASONBORO  41110 0700               81                N/A
WVE H/P(F/S)=  5/ 6 WND WVE H/P(F/S)=  5/ 6

WILM HARBR 41108 NOT AVBL
27WRITEBCH 41037 0600            78 81  130/ 17/ 19 1018.3F
FRYING PAN 41013 NOT AVBL
SUNST NRSH 41024 0600            82     110/ 16/ 17 1017.0F
CAPRS NRSH 41029 0600            82     140/  8/ 10   N/A
EDISTO     41004 0700            83 83  150/ 12/ 16 1014.8F
WVE H/P(F/S)=  4/ 7 WND WVE H/P(F/S)=  3/ 5 SWL H/P/D(F/S/D)=  2/ 7



..........OFFSHORE BUOYS BEYOND 100 NM OFFSHORE...........
.....IN A TRIANGLE---HAT TO BERMUDA TO BAHAMAS TO HAT.....


STATION/POSITION TIME  SKY/WX   TEMP    WIND        PRES    VSBY
                                AIR SEA DIR/SP/G
                 (UTC)          (F)     (DEG/KT/KT) (MB)    (MI)
150E HAT   41001 NOT AVBL
W BERMUDA  41048 0629            81 82  140/ 10/ 12 1021.2F
WVE H/P(F/S)=  3/ 6 WND WVE H/P(F/S)=  2/ 4 SWL H/P/D(F/S/D)=  3/180/ 6

ATLANTIC S 41049 0602            81 83   90/ 12/ 14 1019.1
WVE H/P(F/S)=  4/ 5 WND WVE H/P(F/S)=  3/ 5 SWL H/P/D(F/S/D)=  2/110/ 6

E BAHAMAS  41046 0557            78 83   70/  6/  8 1016.7
WVE H/P(F/S)=  5/ 7 WND WVE H/P(F/S)=  2/ 4 SWL H/P/D(F/S/D)=  5/120/ 7

NE BAHAMAS 41047 0623            81 84  130/ 12/ 16 1018.0F
WVE H/P(F/S)=  4/ 7 WND WVE H/P(F/S)=  3/ 5 SWL H/P/D(F/S/D)=  3/120/ 7

120E CANVRL41010 0700            83 84  150/ 14/ 16 1015.8F
WVE H/P(F/S)=  3/ 4 WND WVE H/P(F/S)=  3/ 4 SWL H/P/D(F/S/D)=  2/ 60/ 8


END



USA.gov is the U.S. government's official web portal to all federal, state and local government web resources and services.